Year,Month,Day,Hour,Minute,Value (Times are PST for windgust in km/hr)
2018,02,18,00,00,3.20
2018,02,18,00,01,8.10
2018,02,18,00,02,3.20
2018,02,18,00,03,6.40
2018,02,18,00,04,1.60
2018,02,18,00,05,4.80
2018,02,18,00,06,3.20
2018,02,18,00,07,3.20
2018,02,18,00,08,3.20
2018,02,18,00,09,1.60
2018,02,18,00,10,3.20
2018,02,18,00,11,6.40
2018,02,18,00,12,6.40
2018,02,18,00,13,6.40
2018,02,18,00,14,6.40
2018,02,18,00,15,6.40
2018,02,18,00,16,4.80
2018,02,18,00,17,4.80
2018,02,18,00,18,6.40
2018,02,18,00,19,14.50
2018,02,18,00,20,4.80
2018,02,18,00,21,8.10
2018,02,18,00,22,6.40
2018,02,18,00,23,8.10
2018,02,18,00,24,8.10
2018,02,18,00,25,4.80
2018,02,18,00,26,4.80
2018,02,18,00,27,4.80
2018,02,18,00,28,6.40
2018,02,18,00,29,6.40
2018,02,18,00,30,6.40
2018,02,18,00,31,4.80
2018,02,18,00,32,8.10
2018,02,18,00,33,8.10
2018,02,18,00,34,6.40
2018,02,18,00,35,9.60
2018,02,18,00,36,8.10
2018,02,18,00,37,6.40
2018,02,18,00,38,4.80
2018,02,18,00,39,4.80
2018,02,18,00,40,6.40
2018,02,18,00,41,6.40
2018,02,18,00,42,4.80
2018,02,18,00,43,4.80
2018,02,18,00,44,8.10
2018,02,18,00,45,6.40
2018,02,18,00,46,8.10
2018,02,18,00,47,11.30
2018,02,18,00,48,8.10
2018,02,18,00,49,16.10
2018,02,18,00,50,8.10
2018,02,18,00,51,6.40
2018,02,18,00,52,9.60
2018,02,18,00,53,6.40
2018,02,18,00,54,11.30
2018,02,18,00,55,6.40
2018,02,18,00,56,8.10
2018,02,18,00,57,4.80
2018,02,18,00,58,3.20
2018,02,18,00,59,3.20
2018,02,18,01,00,1.60
2018,02,18,01,01,6.40
2018,02,18,01,02,8.10
2018,02,18,01,03,4.80
2018,02,18,01,04,1.60
2018,02,18,01,05,4.80
2018,02,18,01,06,4.80
2018,02,18,01,07,4.80
2018,02,18,01,08,3.20
2018,02,18,01,09,4.80
2018,02,18,01,10,3.20
2018,02,18,01,11,6.40
2018,02,18,01,12,4.80
2018,02,18,01,13,6.40
2018,02,18,01,19,4.80
2018,02,18,01,20,4.80
2018,02,18,01,21,3.20
2018,02,18,01,22,3.20
2018,02,18,01,23,3.20
2018,02,18,01,24,4.80
2018,02,18,01,25,1.60
2018,02,18,01,28,4.80
2018,02,18,01,29,3.20
2018,02,18,01,31,1.60
2018,02,18,01,32,3.20
2018,02,18,01,33,1.60
2018,02,18,01,34,1.60
2018,02,18,01,36,3.20
2018,02,18,01,37,1.60
2018,02,18,01,38,6.40
2018,02,18,01,39,8.10
2018,02,18,01,40,4.80
2018,02,18,01,41,8.10
2018,02,18,01,42,9.60
2018,02,18,01,43,8.10
2018,02,18,01,44,4.80
2018,02,18,01,45,6.40
2018,02,18,01,46,4.80
2018,02,18,01,47,8.10
2018,02,18,01,48,9.60
2018,02,18,01,49,8.10
2018,02,18,01,50,9.60
2018,02,18,01,51,4.80
2018,02,18,01,52,6.40
2018,02,18,01,53,4.80
2018,02,18,01,54,4.80
2018,02,18,01,55,6.40
2018,02,18,01,56,6.40
2018,02,18,01,57,6.40
2018,02,18,01,58,8.10
2018,02,18,01,59,6.40
2018,02,18,02,00,6.40
2018,02,18,02,01,6.40
2018,02,18,02,02,6.40
2018,02,18,02,03,4.80
2018,02,18,02,04,4.80
2018,02,18,02,05,4.80
2018,02,18,02,06,6.40
2018,02,18,02,07,6.40
2018,02,18,02,08,6.40
2018,02,18,02,09,6.40
2018,02,18,02,10,3.20
2018,02,18,02,11,4.80
2018,02,18,02,12,4.80
2018,02,18,02,13,4.80
2018,02,18,02,14,6.40
2018,02,18,02,15,4.80
2018,02,18,02,16,4.80
2018,02,18,02,17,4.80
2018,02,18,02,18,3.20
2018,02,18,02,19,4.80
2018,02,18,02,20,6.40
2018,02,18,02,21,6.40
2018,02,18,02,22,4.80
2018,02,18,02,23,4.80
2018,02,18,02,24,6.40
2018,02,18,02,25,4.80
2018,02,18,02,26,6.40
2018,02,18,02,27,6.40
2018,02,18,02,28,6.40
2018,02,18,02,29,4.80
2018,02,18,02,30,1.60
2018,02,18,02,31,3.20
2018,02,18,02,32,6.40
2018,02,18,02,33,6.40
2018,02,18,02,34,4.80
2018,02,18,02,35,3.20
2018,02,18,02,36,3.20
2018,02,18,02,37,3.20
2018,02,18,02,38,3.20
2018,02,18,02,39,4.80
2018,02,18,02,40,3.20
2018,02,18,02,41,4.80
2018,02,18,02,42,4.80
2018,02,18,02,43,3.20
2018,02,18,02,46,1.60
2018,02,18,02,47,4.80
2018,02,18,02,48,4.80
2018,02,18,02,49,1.60
2018,02,18,02,50,3.20
2018,02,18,02,51,3.20
2018,02,18,02,52,1.60
2018,02,18,02,53,3.20
2018,02,18,02,54,3.20
2018,02,18,02,55,4.80
2018,02,18,02,56,4.80
2018,02,18,02,57,3.20
2018,02,18,02,58,3.20
2018,02,18,02,59,3.20
2018,02,18,03,00,3.20
2018,02,18,03,01,3.20
2018,02,18,03,02,4.80
2018,02,18,03,03,3.20
2018,02,18,03,04,3.20
2018,02,18,03,05,1.60
2018,02,18,03,06,3.20
2018,02,18,03,07,3.20
2018,02,18,03,08,3.20
2018,02,18,03,09,3.20
2018,02,18,03,10,3.20
2018,02,18,03,11,3.20
2018,02,18,03,12,3.20
2018,02,18,03,13,1.60
2018,02,18,03,18,1.60
2018,02,18,03,48,1.60
2018,02,18,03,49,1.60
2018,02,18,03,54,1.60
2018,02,18,03,55,1.60
2018,02,18,05,25,4.80
2018,02,18,05,26,4.80
2018,02,18,05,27,4.80
2018,02,18,05,28,17.70
2018,02,18,05,29,22.50
2018,02,18,05,30,22.50
2018,02,18,05,31,16.10
2018,02,18,05,32,11.30
2018,02,18,05,33,17.70
2018,02,18,05,34,17.70
2018,02,18,05,35,14.50
2018,02,18,05,36,6.40
2018,02,18,05,37,22.50
2018,02,18,05,38,14.50
2018,02,18,05,39,22.50
2018,02,18,05,40,16.10
2018,02,18,05,41,27.40
2018,02,18,05,42,22.50
2018,02,18,05,43,20.90
2018,02,18,05,44,25.70
2018,02,18,05,45,20.90
2018,02,18,05,46,24.20
2018,02,18,05,47,17.70
2018,02,18,05,48,22.50
2018,02,18,05,49,27.40
2018,02,18,05,50,17.70
2018,02,18,05,51,20.90
2018,02,18,05,52,27.40
2018,02,18,05,53,27.40
2018,02,18,05,54,22.50
2018,02,18,05,55,25.70
2018,02,18,05,56,16.10
2018,02,18,05,57,32.20
2018,02,18,05,58,19.30
2018,02,18,05,59,20.90
2018,02,18,06,00,24.20
2018,02,18,06,01,11.30
2018,02,18,06,02,22.50
2018,02,18,06,03,17.70
2018,02,18,06,04,17.70
2018,02,18,06,05,20.90
2018,02,18,06,06,20.90
2018,02,18,06,07,19.30
2018,02,18,06,08,27.40
2018,02,18,06,09,24.20
2018,02,18,06,10,25.70
2018,02,18,06,11,16.10
2018,02,18,06,12,11.30
2018,02,18,06,13,29.00
2018,02,18,06,14,29.00
2018,02,18,06,15,20.90
2018,02,18,06,16,25.70
2018,02,18,06,17,27.40
2018,02,18,06,18,22.50
2018,02,18,06,19,19.30
2018,02,18,06,20,24.20
2018,02,18,06,21,25.70
2018,02,18,06,22,27.40
2018,02,18,06,23,22.50
2018,02,18,06,24,24.20
2018,02,18,06,25,32.20
2018,02,18,06,26,29.00
2018,02,18,06,27,29.00
2018,02,18,06,28,32.20
2018,02,18,06,29,22.50
2018,02,18,06,30,20.90
2018,02,18,06,31,27.40
2018,02,18,06,32,35.40
2018,02,18,06,33,22.50
2018,02,18,06,34,24.20
2018,02,18,06,35,17.70
2018,02,18,06,36,16.10
2018,02,18,06,37,22.50
2018,02,18,06,38,25.70
2018,02,18,06,39,25.70
2018,02,18,06,40,20.90
2018,02,18,06,41,17.70
2018,02,18,06,42,30.60
2018,02,18,06,43,32.20
2018,02,18,06,44,40.20
2018,02,18,06,45,30.60
2018,02,18,06,46,45.10
2018,02,18,06,47,29.00
2018,02,18,06,48,29.00
2018,02,18,06,49,33.80
2018,02,18,06,50,37.00
2018,02,18,06,51,30.60
2018,02,18,06,52,29.00
2018,02,18,06,53,33.80
2018,02,18,06,54,29.00
2018,02,18,06,55,25.70
2018,02,18,06,56,20.90
2018,02,18,06,57,38.60
2018,02,18,06,58,22.50
2018,02,18,06,59,24.20
2018,02,18,07,00,24.20
2018,02,18,07,01,27.40
2018,02,18,07,02,30.60
2018,02,18,07,03,24.20
2018,02,18,07,04,27.40
2018,02,18,07,05,22.50
2018,02,18,07,06,19.30
2018,02,18,07,07,35.40
2018,02,18,07,08,40.20
2018,02,18,07,09,25.70
2018,02,18,07,10,30.60
2018,02,18,07,11,24.20
2018,02,18,07,12,43.50
2018,02,18,07,13,37.00
2018,02,18,07,14,29.00
2018,02,18,07,15,37.00
2018,02,18,07,16,41.80
2018,02,18,07,17,35.40
2018,02,18,07,18,35.40
2018,02,18,07,19,32.20
2018,02,18,07,20,30.60
2018,02,18,07,21,38.60
2018,02,18,07,22,32.20
2018,02,18,07,23,35.40
2018,02,18,07,24,32.20
2018,02,18,07,25,37.00
2018,02,18,07,26,35.40
2018,02,18,07,27,40.20
2018,02,18,07,28,38.60
2018,02,18,07,29,32.20
2018,02,18,07,30,38.60
2018,02,18,07,31,40.20
2018,02,18,07,32,37.00
2018,02,18,07,33,32.20
2018,02,18,07,34,38.60
2018,02,18,07,35,37.00
2018,02,18,07,36,38.60
2018,02,18,07,37,30.60
2018,02,18,07,38,30.60
2018,02,18,07,39,32.20
2018,02,18,07,40,33.80
2018,02,18,07,41,59.50
2018,02,18,07,42,25.70
2018,02,18,07,43,29.00
2018,02,18,07,44,22.50
2018,02,18,07,45,35.40
2018,02,18,07,46,30.60
2018,02,18,07,47,37.00
2018,02,18,07,48,29.00
2018,02,18,07,49,33.80
2018,02,18,07,50,27.40
2018,02,18,07,51,40.20
2018,02,18,07,52,27.40
2018,02,18,07,53,32.20
2018,02,18,07,54,40.20
2018,02,18,07,55,33.80
2018,02,18,07,56,35.40
2018,02,18,07,57,37.00
2018,02,18,07,58,40.20
2018,02,18,07,59,41.80
2018,02,18,08,00,40.20
2018,02,18,08,01,32.20
2018,02,18,08,02,38.60
2018,02,18,08,03,48.30
2018,02,18,08,04,48.30
2018,02,18,08,05,53.10
2018,02,18,08,06,38.60
2018,02,18,08,07,33.80
2018,02,18,08,08,33.80
2018,02,18,08,09,35.40
2018,02,18,08,10,35.40
2018,02,18,08,11,37.00
2018,02,18,08,12,38.60
2018,02,18,08,13,30.60
2018,02,18,08,14,33.80
2018,02,18,08,15,35.40
2018,02,18,08,16,38.60
2018,02,18,08,17,27.40
2018,02,18,08,18,45.10
2018,02,18,08,19,41.80
2018,02,18,08,20,30.60
2018,02,18,08,21,37.00
2018,02,18,08,22,32.20
2018,02,18,08,23,27.40
2018,02,18,08,24,32.20
2018,02,18,08,25,24.20
2018,02,18,08,26,29.00
2018,02,18,08,27,29.00
2018,02,18,08,28,25.70
2018,02,18,08,29,35.40
2018,02,18,08,30,20.90
2018,02,18,08,31,33.80
2018,02,18,08,32,37.00
2018,02,18,08,33,32.20
2018,02,18,08,34,37.00
2018,02,18,08,35,35.40
2018,02,18,08,36,35.40
2018,02,18,08,37,35.40
2018,02,18,08,38,29.00
2018,02,18,08,39,37.00
2018,02,18,08,40,35.40
2018,02,18,08,41,38.60
2018,02,18,08,42,43.50
2018,02,18,08,43,27.40
2018,02,18,08,44,38.60
2018,02,18,08,45,27.40
2018,02,18,08,46,30.60
2018,02,18,08,47,37.00
2018,02,18,08,48,33.80
2018,02,18,08,49,35.40
2018,02,18,08,50,45.10
2018,02,18,08,51,29.00
2018,02,18,08,52,35.40
2018,02,18,08,53,32.20
2018,02,18,08,54,32.20
2018,02,18,08,55,27.40
2018,02,18,08,56,27.40
2018,02,18,08,57,22.50
2018,02,18,08,58,17.70
2018,02,18,08,59,25.70
2018,02,18,09,00,30.60
2018,02,18,09,01,29.00
2018,02,18,09,02,22.50
2018,02,18,09,03,30.60
2018,02,18,09,04,30.60
2018,02,18,09,05,27.40
2018,02,18,09,06,41.80
2018,02,18,09,07,37.00
2018,02,18,09,08,30.60
2018,02,18,09,09,27.40
2018,02,18,09,10,25.70
2018,02,18,09,11,32.20
2018,02,18,09,12,24.20
2018,02,18,09,13,25.70
2018,02,18,09,14,24.20
2018,02,18,09,15,32.20
2018,02,18,09,16,43.50
2018,02,18,09,17,30.60
2018,02,18,09,18,30.60
2018,02,18,09,19,29.00
2018,02,18,09,20,40.20
2018,02,18,09,21,32.20
2018,02,18,09,22,33.80
2018,02,18,09,23,27.40
2018,02,18,09,24,41.80
2018,02,18,09,25,30.60
2018,02,18,09,26,38.60
2018,02,18,09,27,30.60
2018,02,18,09,28,25.70
2018,02,18,09,29,32.20
2018,02,18,09,30,25.70
2018,02,18,09,31,25.70
2018,02,18,09,32,29.00
2018,02,18,09,33,30.60
2018,02,18,09,34,38.60
2018,02,18,09,35,29.00
2018,02,18,09,36,27.40
2018,02,18,09,37,35.40
2018,02,18,09,38,38.60
2018,02,18,09,39,32.20
2018,02,18,09,40,30.60
2018,02,18,09,41,35.40
2018,02,18,09,42,37.00
2018,02,18,09,43,30.60
2018,02,18,09,44,41.80
2018,02,18,09,45,37.00
2018,02,18,09,46,33.80
2018,02,18,09,47,29.00
2018,02,18,09,48,32.20
2018,02,18,09,49,38.60
2018,02,18,09,50,27.40
2018,02,18,09,51,32.20
2018,02,18,09,52,35.40
2018,02,18,09,53,24.20
2018,02,18,09,54,33.80
2018,02,18,09,55,37.00
2018,02,18,09,56,27.40
2018,02,18,09,57,38.60
2018,02,18,09,58,35.40
2018,02,18,09,59,41.80
2018,02,18,10,00,32.20
2018,02,18,10,01,35.40
2018,02,18,10,02,30.60
2018,02,18,10,03,25.70
2018,02,18,10,04,37.00
2018,02,18,10,05,24.20
2018,02,18,10,06,30.60
2018,02,18,10,07,24.20
2018,02,18,10,08,40.20
2018,02,18,10,09,25.70
2018,02,18,10,10,20.90
2018,02,18,10,11,41.80
2018,02,18,10,12,24.20
2018,02,18,10,13,33.80
2018,02,18,10,14,40.20
2018,02,18,10,15,41.80
2018,02,18,10,16,35.40
2018,02,18,10,17,17.70
2018,02,18,10,18,30.60
2018,02,18,10,19,41.80
2018,02,18,10,20,33.80
2018,02,18,10,21,33.80
2018,02,18,10,22,40.20
2018,02,18,10,23,45.10
2018,02,18,10,24,33.80
2018,02,18,10,25,33.80
2018,02,18,10,26,30.60
2018,02,18,10,27,30.60
2018,02,18,10,28,32.20
2018,02,18,10,29,30.60
2018,02,18,10,30,19.30
2018,02,18,10,31,32.20
2018,02,18,10,32,32.20
2018,02,18,10,33,29.00
2018,02,18,10,34,32.20
2018,02,18,10,35,29.00
2018,02,18,10,36,32.20
2018,02,18,10,37,24.20
2018,02,18,10,38,22.50
2018,02,18,10,39,32.20
2018,02,18,10,40,25.70
2018,02,18,10,41,33.80
2018,02,18,10,42,25.70
2018,02,18,10,43,40.20
2018,02,18,10,44,37.00
2018,02,18,10,45,29.00
2018,02,18,10,46,45.10
2018,02,18,10,47,40.20
2018,02,18,10,48,37.00
2018,02,18,10,49,38.60
2018,02,18,10,50,27.40
2018,02,18,10,51,41.80
2018,02,18,10,52,32.20
2018,02,18,10,53,35.40
2018,02,18,10,54,30.60
2018,02,18,10,55,33.80
2018,02,18,10,56,29.00
2018,02,18,10,57,43.50
2018,02,18,10,58,29.00
2018,02,18,10,59,29.00
2018,02,18,11,00,40.20
2018,02,18,11,01,37.00
2018,02,18,11,02,32.20
2018,02,18,11,03,40.20
2018,02,18,11,04,37.00
2018,02,18,11,05,35.40
2018,02,18,11,06,27.40
2018,02,18,11,07,17.70
2018,02,18,11,08,25.70
2018,02,18,11,09,30.60
2018,02,18,11,10,25.70
2018,02,18,11,11,35.40
2018,02,18,11,12,38.60
2018,02,18,11,13,37.00
2018,02,18,11,14,46.70
2018,02,18,11,15,35.40
2018,02,18,11,16,19.30
2018,02,18,11,17,35.40
2018,02,18,11,18,27.40
2018,02,18,11,19,38.60
2018,02,18,11,20,30.60
2018,02,18,11,21,32.20
2018,02,18,11,22,25.70
2018,02,18,11,23,37.00
2018,02,18,11,24,35.40
2018,02,18,11,25,30.60
2018,02,18,11,26,35.40
2018,02,18,11,27,41.80
2018,02,18,11,28,29.00
2018,02,18,11,29,25.70
2018,02,18,11,30,30.60
2018,02,18,11,31,24.20
2018,02,18,11,32,40.20
2018,02,18,11,33,17.70
2018,02,18,11,34,33.80
2018,02,18,11,35,33.80
2018,02,18,11,36,35.40
2018,02,18,11,37,32.20
2018,02,18,11,38,29.00
2018,02,18,11,39,32.20
2018,02,18,11,40,29.00
2018,02,18,11,41,37.00
2018,02,18,11,42,33.80
2018,02,18,11,43,35.40
2018,02,18,11,44,37.00
2018,02,18,11,45,30.60
2018,02,18,11,46,29.00
2018,02,18,11,47,35.40
2018,02,18,11,48,30.60
2018,02,18,11,49,27.40
2018,02,18,11,50,32.20
2018,02,18,11,51,25.70
2018,02,18,11,52,27.40
2018,02,18,11,53,37.00
2018,02,18,11,54,20.90
2018,02,18,11,55,35.40
2018,02,18,11,56,20.90
2018,02,18,11,57,20.90
2018,02,18,11,58,30.60
2018,02,18,11,59,32.20
2018,02,18,12,00,17.70
2018,02,18,12,01,24.20
2018,02,18,12,02,20.90
2018,02,18,12,03,40.20
2018,02,18,12,04,30.60
2018,02,18,12,05,29.00
2018,02,18,12,06,38.60
2018,02,18,12,07,24.20
2018,02,18,12,08,29.00
2018,02,18,12,09,29.00
2018,02,18,12,10,38.60
2018,02,18,12,11,24.20
2018,02,18,12,12,35.40
2018,02,18,12,13,41.80
2018,02,18,12,14,27.40
2018,02,18,12,15,22.50
2018,02,18,12,16,35.40
2018,02,18,12,17,22.50
2018,02,18,12,18,24.20
2018,02,18,12,19,27.40
2018,02,18,12,20,32.20
2018,02,18,12,21,33.80
2018,02,18,12,22,35.40
2018,02,18,12,23,40.20
2018,02,18,12,24,35.40
2018,02,18,12,25,38.60
2018,02,18,12,26,32.20
2018,02,18,12,27,22.50
2018,02,18,12,28,17.70
2018,02,18,12,29,37.00
2018,02,18,12,30,19.30
2018,02,18,12,31,30.60
2018,02,18,12,32,32.20
2018,02,18,12,33,30.60
2018,02,18,12,34,27.40
2018,02,18,12,35,35.40
2018,02,18,12,36,29.00
2018,02,18,12,37,25.70
2018,02,18,12,38,27.40
2018,02,18,12,39,32.20
2018,02,18,12,40,22.50
2018,02,18,12,41,25.70
2018,02,18,12,42,27.40
2018,02,18,12,43,27.40
2018,02,18,12,44,48.30
2018,02,18,12,45,30.60
2018,02,18,12,46,35.40
2018,02,18,12,47,24.20
2018,02,18,12,48,24.20
2018,02,18,12,49,27.40
2018,02,18,12,50,20.90
2018,02,18,12,51,19.30
2018,02,18,12,52,35.40
2018,02,18,12,53,22.50
2018,02,18,12,54,27.40
2018,02,18,12,55,30.60
2018,02,18,12,56,29.00
2018,02,18,12,57,30.60
2018,02,18,12,58,27.40
2018,02,18,12,59,30.60
2018,02,18,13,00,29.00
2018,02,18,13,01,29.00
2018,02,18,13,02,41.80
2018,02,18,13,03,27.40
2018,02,18,13,04,37.00
2018,02,18,13,05,29.00
2018,02,18,13,06,20.90
2018,02,18,13,07,27.40
2018,02,18,13,08,30.60
2018,02,18,13,09,25.70
2018,02,18,13,10,27.40
2018,02,18,13,11,27.40
2018,02,18,13,12,22.50
2018,02,18,13,13,20.90
2018,02,18,13,14,29.00
2018,02,18,13,15,30.60
2018,02,18,13,16,29.00
2018,02,18,13,17,35.40
2018,02,18,13,18,25.70
2018,02,18,13,19,27.40
2018,02,18,13,20,25.70
2018,02,18,13,21,20.90
2018,02,18,13,22,24.20
2018,02,18,13,23,20.90
2018,02,18,13,24,30.60
2018,02,18,13,25,27.40
2018,02,18,13,26,25.70
2018,02,18,13,27,37.00
2018,02,18,13,28,30.60
2018,02,18,13,29,24.20
2018,02,18,13,30,32.20
2018,02,18,13,31,20.90
2018,02,18,13,32,33.80
2018,02,18,13,33,22.50
2018,02,18,13,34,25.70
2018,02,18,13,35,25.70
2018,02,18,13,36,27.40
2018,02,18,13,37,25.70
2018,02,18,13,38,24.20
2018,02,18,13,39,25.70
2018,02,18,13,40,33.80
2018,02,18,13,41,33.80
2018,02,18,13,42,27.40
2018,02,18,13,43,29.00
2018,02,18,13,44,22.50
2018,02,18,13,45,25.70
2018,02,18,13,46,20.90
2018,02,18,13,47,25.70
2018,02,18,13,48,19.30
2018,02,18,13,49,22.50
2018,02,18,13,50,30.60
2018,02,18,13,51,20.90
2018,02,18,13,52,25.70
2018,02,18,13,53,27.40
2018,02,18,13,54,25.70
2018,02,18,13,55,27.40
2018,02,18,13,56,27.40
2018,02,18,13,57,19.30
2018,02,18,13,58,19.30
2018,02,18,13,59,12.90
2018,02,18,14,00,25.70
2018,02,18,14,01,27.40
2018,02,18,14,02,14.50
2018,02,18,14,03,29.00
2018,02,18,14,04,24.20
2018,02,18,14,05,19.30
2018,02,18,14,06,24.20
2018,02,18,14,07,24.20
2018,02,18,14,08,14.50
2018,02,18,14,09,22.50
2018,02,18,14,10,22.50
2018,02,18,14,11,19.30
2018,02,18,14,12,35.40
2018,02,18,14,13,16.10
2018,02,18,14,14,17.70
2018,02,18,14,15,35.40
2018,02,18,14,16,25.70
2018,02,18,14,17,20.90
2018,02,18,14,18,16.10
2018,02,18,14,19,14.50
2018,02,18,14,20,24.20
2018,02,18,14,21,32.20
2018,02,18,14,22,25.70
2018,02,18,14,23,24.20
2018,02,18,14,24,22.50
2018,02,18,14,25,20.90
2018,02,18,14,26,30.60
2018,02,18,14,27,25.70
2018,02,18,14,28,27.40
2018,02,18,14,29,32.20
2018,02,18,14,30,22.50
2018,02,18,14,31,22.50
2018,02,18,14,32,22.50
2018,02,18,14,33,22.50
2018,02,18,14,34,37.00
2018,02,18,14,35,22.50
2018,02,18,14,36,29.00
2018,02,18,14,37,24.20
2018,02,18,14,38,25.70
2018,02,18,14,39,22.50
2018,02,18,14,40,27.40
2018,02,18,14,41,30.60
2018,02,18,14,42,25.70
2018,02,18,14,43,27.40
2018,02,18,14,44,22.50
2018,02,18,14,45,27.40
2018,02,18,14,46,22.50
2018,02,18,14,47,27.40
2018,02,18,14,48,25.70
2018,02,18,14,49,22.50
2018,02,18,14,50,22.50
2018,02,18,14,51,37.00
2018,02,18,14,52,22.50
2018,02,18,14,53,29.00
2018,02,18,14,54,25.70
2018,02,18,14,55,24.20
2018,02,18,14,56,16.10
2018,02,18,14,57,12.90
2018,02,18,14,58,20.90
2018,02,18,14,59,32.20
2018,02,18,15,00,16.10
2018,02,18,15,01,27.40
2018,02,18,15,02,17.70
2018,02,18,15,03,27.40
2018,02,18,15,04,29.00
2018,02,18,15,05,27.40
2018,02,18,15,06,37.00
2018,02,18,15,07,24.20
2018,02,18,15,08,20.90
2018,02,18,15,09,29.00
2018,02,18,15,10,27.40
2018,02,18,15,11,25.70
2018,02,18,15,12,22.50
2018,02,18,15,13,19.30
2018,02,18,15,14,27.40
2018,02,18,15,15,32.20
2018,02,18,15,16,30.60
2018,02,18,15,17,17.70
2018,02,18,15,18,25.70
2018,02,18,15,19,37.00
2018,02,18,15,20,35.40
2018,02,18,15,21,27.40
2018,02,18,15,22,29.00
2018,02,18,15,23,24.20
2018,02,18,15,24,37.00
2018,02,18,15,25,22.50
2018,02,18,15,26,37.00
2018,02,18,15,27,20.90
2018,02,18,15,28,24.20
2018,02,18,15,29,32.20
2018,02,18,15,30,24.20
2018,02,18,15,31,19.30
2018,02,18,15,32,17.70
2018,02,18,15,33,14.50
2018,02,18,15,34,14.50
2018,02,18,15,35,22.50
2018,02,18,15,36,32.20
2018,02,18,15,37,29.00
2018,02,18,15,38,17.70
2018,02,18,15,39,25.70
2018,02,18,15,40,30.60
2018,02,18,15,41,29.00
2018,02,18,15,42,35.40
2018,02,18,15,43,16.10
2018,02,18,15,44,30.60
2018,02,18,15,45,14.50
2018,02,18,15,46,24.20
2018,02,18,15,47,35.40
2018,02,18,15,48,19.30
2018,02,18,15,49,22.50
2018,02,18,15,50,20.90
2018,02,18,15,51,19.30
2018,02,18,15,52,12.90
2018,02,18,15,53,27.40
2018,02,18,15,54,25.70
2018,02,18,15,55,29.00
2018,02,18,15,56,29.00
2018,02,18,15,57,29.00
2018,02,18,15,58,32.20
2018,02,18,15,59,30.60
2018,02,18,16,00,20.90
2018,02,18,16,01,25.70
2018,02,18,16,02,29.00
2018,02,18,16,03,17.70
2018,02,18,16,04,16.10
2018,02,18,16,05,30.60
2018,02,18,16,06,16.10
2018,02,18,16,07,17.70
2018,02,18,16,08,19.30
2018,02,18,16,09,20.90
2018,02,18,16,10,29.00
2018,02,18,16,11,24.20
2018,02,18,16,12,22.50
2018,02,18,16,13,30.60
2018,02,18,16,14,33.80
2018,02,18,16,15,33.80
2018,02,18,16,16,25.70
2018,02,18,16,17,16.10
2018,02,18,16,18,33.80
2018,02,18,16,19,40.20
2018,02,18,16,20,35.40
2018,02,18,16,21,35.40
2018,02,18,16,22,17.70
2018,02,18,16,23,17.70
2018,02,18,16,24,32.20
2018,02,18,16,25,25.70
2018,02,18,16,26,25.70
2018,02,18,16,27,17.70
2018,02,18,16,28,22.50
2018,02,18,16,29,25.70
2018,02,18,16,30,20.90
2018,02,18,16,31,30.60
2018,02,18,16,32,20.90
2018,02,18,16,33,25.70
2018,02,18,16,34,24.20
2018,02,18,16,35,20.90
2018,02,18,16,36,37.00
2018,02,18,16,37,27.40
2018,02,18,16,38,27.40
2018,02,18,16,39,27.40
2018,02,18,16,40,27.40
2018,02,18,16,41,25.70
2018,02,18,16,42,27.40
2018,02,18,16,43,16.10
2018,02,18,16,44,22.50
2018,02,18,16,45,22.50
2018,02,18,16,46,46.70
2018,02,18,16,47,27.40
2018,02,18,16,48,22.50
2018,02,18,16,49,25.70
2018,02,18,16,50,24.20
2018,02,18,16,51,25.70
2018,02,18,16,52,25.70
2018,02,18,16,53,30.60
2018,02,18,16,54,24.20
2018,02,18,16,55,17.70
2018,02,18,16,56,20.90
2018,02,18,16,57,27.40
2018,02,18,16,58,20.90
2018,02,18,16,59,24.20
2018,02,18,17,00,20.90
2018,02,18,17,01,30.60
2018,02,18,17,02,22.50
2018,02,18,17,03,22.50
2018,02,18,17,04,22.50
2018,02,18,17,05,27.40
2018,02,18,17,06,25.70
2018,02,18,17,07,25.70
2018,02,18,17,08,22.50
2018,02,18,17,09,22.50
2018,02,18,17,10,27.40
2018,02,18,17,11,29.00
2018,02,18,17,12,22.50
2018,02,18,17,13,24.20
2018,02,18,17,14,19.30
2018,02,18,17,15,32.20
2018,02,18,17,16,24.20
2018,02,18,17,17,24.20
2018,02,18,17,18,22.50
2018,02,18,17,19,38.60
2018,02,18,17,20,22.50
2018,02,18,17,21,24.20
2018,02,18,17,22,20.90
2018,02,18,17,23,30.60
2018,02,18,17,24,25.70
2018,02,18,17,25,33.80
2018,02,18,17,26,27.40
2018,02,18,17,27,24.20
2018,02,18,17,28,27.40
2018,02,18,17,29,24.20
2018,02,18,17,30,20.90
2018,02,18,17,31,24.20
2018,02,18,17,32,22.50
2018,02,18,17,33,22.50
2018,02,18,17,34,25.70
2018,02,18,17,35,24.20
2018,02,18,17,36,29.00
2018,02,18,17,37,29.00
2018,02,18,17,38,25.70
2018,02,18,17,39,19.30
2018,02,18,17,40,35.40
2018,02,18,17,41,32.20
2018,02,18,17,42,24.20
2018,02,18,17,43,19.30
2018,02,18,17,44,20.90
2018,02,18,17,45,22.50
2018,02,18,17,46,24.20
2018,02,18,17,47,25.70
2018,02,18,17,48,27.40
2018,02,18,17,49,20.90
2018,02,18,17,50,29.00
2018,02,18,17,51,19.30
2018,02,18,17,52,22.50
2018,02,18,17,53,29.00
2018,02,18,17,54,32.20
2018,02,18,17,55,27.40
2018,02,18,17,56,41.80
2018,02,18,17,57,25.70
2018,02,18,17,58,25.70
2018,02,18,17,59,35.40
2018,02,18,18,00,33.80
2018,02,18,18,01,32.20
2018,02,18,18,02,32.20
2018,02,18,18,03,24.20
2018,02,18,18,04,20.90
2018,02,18,18,05,25.70
2018,02,18,18,06,29.00
2018,02,18,18,07,25.70
2018,02,18,18,08,24.20
2018,02,18,18,09,24.20
2018,02,18,18,10,24.20
2018,02,18,18,11,29.00
2018,02,18,18,12,27.40
2018,02,18,18,13,17.70
2018,02,18,18,14,24.20
2018,02,18,18,15,16.10
2018,02,18,18,16,24.20
2018,02,18,18,17,24.20
2018,02,18,18,18,27.40
2018,02,18,18,19,22.50
2018,02,18,18,20,29.00
2018,02,18,18,21,22.50
2018,02,18,18,22,20.90
2018,02,18,18,23,29.00
2018,02,18,18,24,16.10
2018,02,18,18,25,22.50
2018,02,18,18,26,27.40
2018,02,18,18,27,17.70
2018,02,18,18,28,24.20
2018,02,18,18,29,27.40
2018,02,18,18,30,25.70
2018,02,18,18,31,22.50
2018,02,18,18,32,38.60
2018,02,18,18,33,20.90
2018,02,18,18,34,22.50
2018,02,18,18,35,16.10
2018,02,18,18,36,20.90
2018,02,18,18,37,20.90
2018,02,18,18,38,29.00
2018,02,18,18,39,20.90
2018,02,18,18,40,29.00
2018,02,18,18,41,25.70
2018,02,18,18,42,24.20
2018,02,18,18,43,24.20
2018,02,18,18,44,27.40
2018,02,18,18,45,19.30
2018,02,18,18,46,24.20
2018,02,18,18,47,27.40
2018,02,18,18,48,37.00
2018,02,18,18,49,22.50
2018,02,18,18,50,22.50
2018,02,18,18,51,24.20
2018,02,18,18,52,32.20
2018,02,18,18,53,32.20
2018,02,18,18,54,22.50
2018,02,18,18,55,25.70
2018,02,18,18,56,20.90
2018,02,18,18,57,17.70
2018,02,18,18,58,20.90
2018,02,18,18,59,22.50
2018,02,18,19,00,29.00
2018,02,18,19,01,33.80
2018,02,18,19,02,22.50
2018,02,18,19,03,29.00
2018,02,18,19,04,22.50
2018,02,18,19,05,22.50
2018,02,18,19,06,37.00
2018,02,18,19,07,30.60
2018,02,18,19,08,33.80
2018,02,18,19,09,33.80
2018,02,18,19,10,27.40
2018,02,18,19,11,32.20
2018,02,18,19,12,30.60
2018,02,18,19,13,25.70
2018,02,18,19,14,24.20
2018,02,18,19,15,27.40
2018,02,18,19,16,30.60
2018,02,18,19,17,30.60
2018,02,18,19,18,32.20
2018,02,18,19,19,25.70
2018,02,18,19,20,35.40
2018,02,18,19,21,20.90
2018,02,18,19,22,33.80
2018,02,18,19,23,29.00
2018,02,18,19,24,27.40
2018,02,18,19,25,29.00
2018,02,18,19,26,37.00
2018,02,18,19,27,22.50
2018,02,18,19,28,35.40
2018,02,18,19,29,38.60
2018,02,18,19,30,29.00
2018,02,18,19,31,27.40
2018,02,18,19,32,29.00
2018,02,18,19,33,22.50
2018,02,18,19,34,24.20
2018,02,18,19,35,29.00
2018,02,18,19,36,35.40
2018,02,18,19,37,27.40
2018,02,18,19,38,29.00
2018,02,18,19,39,25.70
2018,02,18,19,40,29.00
2018,02,18,19,41,20.90
2018,02,18,19,42,32.20
2018,02,18,19,43,30.60
2018,02,18,19,44,19.30